Flag for U.S.A. Weather past 2 weeks in Allentown, Pennsylvania, U.S.A.

Now
20 °F

Light snow. Overcast.


Feels Like: 6 °F
Forecast: 21 / 27 °F
Wind: 16 mph from Northeast

Location: Lehigh Valley International Airport

Current Time: Jan 26, 2015 at 6:30:38 AM

Latest Report: Jan 26, 2015 at 5:51 AM


Visibility: 2 mi

Pressure: 29.95 "Hg

Humidity: 78%

Dew point: 14 °F

Location of AllentownLocation

Historic Weather in Allentown — Graph

°F

Allentown temperature yesterday

Maximum temperature yesterday: 40 °F (at 9:51 AM)
Minimum temperature yesterday: 29 °F (at 11:51 PM)
Average temperature yesterday: 36 °F

Past Weeks' High & Low Weather Summary

 TemperatureHumidityPressure
High40 °F (Jan 16, 12:51 PM)93% (Jan 12, 1:59 PM)30.68 "Hg (Jan 12, 1:59 PM)
Low12 °F (Jan 17, 5:51 AM)27% (Jan 17, 1:51 PM)29.35 "Hg (Jan 24, 2:51 PM)
Average30 °F66%30.11 "Hg
* Reported Jan 11 4:51 AM — Jan 26 4:51 AM, Allentown, Weather by CustomWeather, © 2014

Note: Actual official high and low records may vary slightly from our data, if they occured in-between our weather recording intervals... More about our weather records

Advertising

Allentown weather history for previous 24 hours

 ConditionsComfort  
Time TempWeatherWind HumidityBarometerVisibility
4:51 AM
Jan 26
20 °FLight snow. Mostly cloudy.16 mph82%29.96 "Hg1 mi
4:04 AM21 °FLight snow. Overcast.14 mph80%29.96 "Hg4 mi
3:51 AM22 °FLight snow. Mostly cloudy.16 mph78%29.98 "Hg2 mi
3:03 AM23 °FLight snow. Mostly cloudy.17 mph74%29.97 "Hg2 mi
2:51 AM24 °FLight snow. Overcast.15 mph68%29.98 "Hg4 mi
1:51 AM26 °FMostly cloudy.10 mph60%29.97 "Hg10 mi
12:51 AM27 °FLight snow. Mostly cloudy.10 mph55%29.97 "Hg10 mi
11:51 PM
Jan 25
29 °FOvercast.9 mph56%29.97 "Hg10 mi
10:51 PM30 °FOvercast.10 mph56%29.98 "Hg10 mi
9:51 PM32 °FOvercast.8 mph47%29.97 "Hg10 mi
8:51 PM33 °FOvercast.8 mph49%29.94 "Hg10 mi
7:51 PM34 °FMostly cloudy.7 mph52%29.93 "Hg10 mi
6:51 PM36 °FOvercast.7 mph44%29.90 "Hg10 mi
5:51 PM37 °FOvercast.5 mph54%29.87 "Hg10 mi
4:51 PM38 °FOvercast.5 mph55%29.83 "Hg10 mi
3:51 PM39 °FMostly cloudy.5 mph55%29.81 "Hg10 mi
2:51 PM39 °FOvercast.9 mph55%29.80 "Hg10 mi
1:51 PM38 °FOvercast.7 mph60%29.79 "Hg10 mi
12:51 PM39 °FOvercast.7 mph67%29.81 "Hg10 mi
11:51 AM39 °FOvercast.8 mph62%29.80 "Hg10 mi
10:51 AM40 °FOvercast.8 mph60%29.78 "Hg10 mi
9:51 AM40 °FOvercast.9 mph63%29.76 "Hg10 mi
8:51 AM38 °FPartly sunny.9 mph68%29.74 "Hg10 mi
7:51 AM36 °FMostly cloudy.13 mph70%29.72 "Hg10 mi
6:51 AM35 °FMostly cloudy.13 mph72%29.68 "Hg10 mi
Weather by CustomWeather, © 2014

See weather overviewHow to use our weather pages